Location: Lombard
(41.8800°N, 88.0080°W)
Time: 00:29:40
(UTC-05:00)

Gurwin Techsat 1B - Pass Details

Date: 19 May 2022
Orbit: 811 x 814 km, 98.8° (Epoch: 27 June)

Event Time Altitude Azimuth Distance (km) Brightness Sun altitude
Rises 03:32:19 0° 12° (NNE) 3,345 12.9 -17.6°
Reaches altitude 10° 03:34:40 10° 12° (NNE) 2,409 12.0 -17.4°
Maximum altitude 03:40:00 82° 286° (WNW) 825 8.6 -16.7°
Enters shadow 03:43:19 24° 201° (SSW) 1,633 9.7 -16.3°
